| time (UTC) | temp F | wind direction | speed MPH | gust MPH | rain 1hr in | rain 24hr in | rain mn in | humidity % | barometer mb |
| 20260901152035 | 85 | 46 | 4.0 | 8.0 | 0.00 | 0.57 | 0.00 | 73 | 1016.9 |
| 20260901151615 | 85 | 53 | 4.0 | 9.0 | 0.00 | 0.57 | 0.00 | 76 | 1017.0 |
| 20260901151035 | 85 | 63 | 4.0 | 9.0 | 0.00 | 0.57 | 0.00 | 74 | 1017.0 |
| 20260901150534 | 85 | 44 | 2.0 | 8.0 | 0.00 | 0.57 | 0.00 | 73 | 1017.0 |
| 20260901150113 | 85 | 9 | 2.0 | 8.0 | 0.00 | 0.57 | 0.00 | 72 | 1016.9 |
| 20260901145534 | 84 | 360 | 3.0 | 8.0 | 0.00 | 0.57 | 0.00 | 77 | 1016.8 |
| 20260901145036 | 83 | 42 | 4.0 | 6.0 | 0.00 | 0.57 | 0.00 | 77 | 1017.0 |
| 20260901144607 | 83 | 5 | 2.0 | 4.0 | 0.00 | 0.57 | 0.00 | 78 | 1016.9 |
| 20260901144038 | 83 | 28 | 2.0 | 4.0 | 0.00 | 0.57 | 0.00 | 79 | 1016.8 |
| 20260901143535 | 82 | 29 | 2.0 | 4.0 | 0.00 | 0.57 | 0.00 | 79 | 1017.0 |
| 20260901143107 | 82 | 5 | 2.0 | 6.0 | 0.00 | 0.57 | 0.00 | 80 | 1016.9 |
| 20260901142534 | 82 | 38 | 1.0 | 7.0 | 0.00 | 0.57 | 0.00 | 81 | 1016.8 |
| 20260901142035 | 82 | 23 | 3.0 | 8.0 | 0.00 | 0.57 | 0.00 | 81 | 1016.7 |
| 20260901141605 | 82 | 57 | 4.0 | 8.0 | 0.00 | 0.57 | 0.00 | 81 | 1016.7 |
| 20260901141036 | 83 | 82 | 3.0 | 6.0 | 0.00 | 0.57 | 0.00 | 81 | 1016.7 |
| 20260901140535 | 82 | 90 | 2.0 | 6.0 | 0.00 | 0.57 | 0.00 | 83 | 1016.7 |
| 20260901140107 | 82 | 27 | 3.0 | 6.0 | 0.00 | 0.57 | 0.00 | 82 | 1016.6 |
| 20260901135534 | 83 | 39 | 2.0 | 7.0 | 0.00 | 0.57 | 0.00 | 82 | 1016.7 |
| 20260901135036 | 83 | 72 | 4.0 | 7.0 | 0.00 | 0.57 | 0.00 | 81 | 1016.7 |
| 20260901134615 | 83 | 45 | 4.0 | 7.0 | 0.00 | 0.57 | 0.00 | 81 | 1016.6 |
| 20260901134034 | 82 | 57 | 3.0 | 5.0 | 0.00 | 0.57 | 0.00 | 84 | 1016.5 |
| 20260901133535 | 82 | 360 | 2.0 | 5.0 | 0.00 | 0.57 | 0.00 | 85 | 1016.5 |
| 20260901133100 | 81 | 33 | 3.0 | 6.0 | 0.00 | 0.57 | 0.00 | 86 | 1016.5 |
| 20260901132535 | 81 | 51 | 3.0 | 6.0 | 0.00 | 0.57 | 0.00 | 85 | 1016.5 |
| 20260901132038 | 81 | 65 | 3.0 | 5.0 | 0.00 | 0.57 | 0.00 | 85 | 1016.4 |
| 20260901131555 | 81 | 360 | 2.0 | 4.0 | 0.00 | 0.57 | 0.00 | 87 | 1016.5 |
| 20260901131038 | 81 | 54 | 2.0 | 3.0 | 0.00 | 0.57 | 0.00 | 86 | 1016.6 |
| 20260901130534 | 80 | 352 | 2.0 | 3.0 | 0.00 | 0.57 | 0.00 | 88 | 1016.6 |
| 20260901130108 | 80 | 360 | 2.0 | 3.0 | 0.00 | 0.57 | 0.00 | 88 | 1016.6 |
| 20260901125536 | 79 | 29 | 2.0 | 3.0 | 0.00 | 0.57 | 0.00 | 90 | 1016.5 |
| 20260901125033 | 79 | 9 | 2.0 | 3.0 | 0.00 | 0.57 | 0.00 | 90 | 1016.5 |
| 20260901124555 | 78 | 13 | 2.0 | 3.0 | 0.00 | 0.57 | 0.00 | 92 | 1016.5 |
| 20260901124037 | 78 | 27 | 1.0 | 3.0 | 0.00 | 0.57 | 0.00 | 92 | 1016.5 |
| 20260901123534 | 77 | 11 | 1.0 | 3.0 | 0.00 | 0.57 | 0.00 | 94 | 1016.4 |
| 20260901123056 | 77 | 19 | 2.0 | 3.0 | 0.00 | 0.57 | 0.00 | 95 | 1016.3 |
| 20260901122535 | 76 | 351 | 1.0 | 3.0 | 0.00 | 0.57 | 0.00 | 96 | 1016.4 |
| 20260901122036 | 76 | 11 | 2.0 | 3.0 | 0.00 | 0.57 | 0.00 | 96 | 1016.3 |
| 20260901121606 | 75 | 360 | 1.0 | 2.0 | 0.00 | 0.57 | 0.00 | 96 | 1016.3 |
| 20260901121034 | 75 | 360 | 1.0 | 2.0 | 0.00 | 0.57 | 0.00 | 96 | 1016.2 |
| 20260901120534 | 75 | 360 | 1.0 | 1.0 | 0.00 | 0.57 | 0.00 | 96 | 1016.3 |
| 20260901120106 | 74 | 360 | 0.0 | 1.0 | 0.00 | 0.57 | 0.00 | 96 | 1016.2 |
| 20260901115535 | 74 | 0 | 0.0 | 0.0 | 0.00 | 0.57 | 0.00 | 96 | 1016.1 |
| 20260901115035 | 73 | 0 | 0.0 | 0.0 | 0.00 | 0.57 | 0.00 | 96 | 1016.0 |
| 20260901114559 | 72 | 0 | 0.0 | 2.0 | 0.00 | 0.57 | 0.00 | 96 | 1016.0 |
| 20260901114034 | 72 | 0 | 0.0 | 2.0 | 0.00 | 0.57 | 0.00 | 96 | 1015.9 |
| 20260901113535 | 71 | 0 | 0.0 | 2.0 | 0.00 | 0.57 | 0.00 | 96 | 1015.8 |
| 20260901113100 | 71 | 360 | 0.0 | 2.0 | 0.00 | 0.57 | 0.00 | 96 | 1015.7 |
| 20260901112537 | 71 | 0 | 0.0 | 2.0 | 0.00 | 0.57 | 0.00 | 96 | 1015.7 |
| 20260901112034 | 71 | 360 | 0.0 | 2.0 | 0.00 | 0.57 | 0.00 | 96 | 1015.5 |
| 20260901111558 | 71 | 360 | 0.0 | 2.0 | 0.00 | 0.57 | 0.00 | 96 | 1015.5 |
| 20260901111035 | 70 | 360 | 1.0 | 1.0 | 0.00 | 0.57 | 0.00 | 95 | 1015.5 |
| 20260901110534 | 71 | 360 | 1.0 | 2.0 | 0.00 | 0.57 | 0.00 | 95 | 1015.6 |
| 20260901110055 | 71 | 360 | 1.0 | 2.0 | 0.00 | 0.57 | 0.00 | 96 | 1015.5 |
| 20260901105534 | 71 | 0 | 0.0 | 2.0 | 0.00 | 0.57 | 0.00 | 96 | 1015.5 |
| 20260901105036 | 71 | 360 | 0.0 | 2.0 | 0.00 | 0.57 | 0.00 | 96 | 1015.4 |
| 20260901104559 | 71 | 0 | 0.0 | 0.0 | 0.00 | 0.57 | 0.00 | 96 | 1015.4 |
| 20260901104037 | 71 | 0 | 0.0 | 0.0 | 0.00 | 0.57 | 0.00 | 96 | 1015.4 |
| 20260901103535 | 71 | 0 | 0.0 | 1.0 | 0.00 | 0.57 | 0.00 | 96 | 1015.4 |
| 20260901103056 | 71 | 0 | 0.0 | 1.0 | 0.00 | 0.57 | 0.00 | 96 | 1015.3 |
| 20260901102536 | 71 | 360 | 1.0 | 2.0 | 0.00 | 0.57 | 0.00 | 96 | 1015.3 |
| 20260901102033 | 71 | 360 | 0.0 | 2.0 | 0.00 | 0.57 | 0.00 | 96 | 1015.3 |
| 20260901101601 | 71 | 0 | 0.0 | 2.0 | 0.00 | 0.57 | 0.00 | 95 | 1015.4 |
| 20260901101038 | 71 | 0 | 0.0 | 2.0 | 0.00 | 0.57 | 0.00 | 95 | 1015.3 |
| 20260901100536 | 71 | 360 | 0.0 | 2.0 | 0.00 | 0.57 | 0.00 | 95 | 1015.3 |
| 20260901100059 | 71 | 360 | 0.0 | 2.0 | 0.00 | 0.57 | 0.00 | 95 | 1015.3 |
| 20260901095534 | 72 | 360 | 0.0 | 2.0 | 0.00 | 0.57 | 0.00 | 96 | 1015.2 |
| 20260901095034 | 72 | 0 | 0.0 | 2.0 | 0.00 | 0.57 | 0.00 | 96 | 1015.3 |
| 20260901094554 | 72 | 0 | 0.0 | 0.0 | 0.00 | 0.57 | 0.00 | 96 | 1015.3 |
| 20260901094038 | 72 | 0 | 0.0 | 0.0 | 0.00 | 0.57 | 0.00 | 96 | 1015.4 |
| 20260901093539 | 72 | 0 | 0.0 | 1.0 | 0.00 | 0.57 | 0.00 | 96 | 1015.4 |
| 20260901093103 | 72 | 0 | 0.0 | 1.0 | 0.00 | 0.57 | 0.00 | 96 | 1015.3 |
| 20260901092536 | 72 | 0 | 0.0 | 1.0 | 0.00 | 0.57 | 0.00 | 96 | 1015.2 |
| 20260901092035 | 72 | 0 | 0.0 | 0.0 | 0.00 | 0.57 | 0.00 | 96 | 1015.2 |
| 20260901091600 | 72 | 0 | 0.0 | 0.0 | 0.00 | 0.57 | 0.00 | 96 | 1015.2 |
| 20260901091034 | 72 | 0 | 0.0 | 2.0 | 0.00 | 0.57 | 0.00 | 96 | 1015.1 |
| 20260901090536 | 72 | 0 | 0.0 | 2.0 | 0.00 | 0.57 | 0.00 | 96 | 1015.1 |
| 20260901090106 | 72 | 0 | 0.0 | 2.0 | 0.00 | 0.57 | 0.00 | 95 | 1015.2 |
| 20260901085533 | 72 | 360 | 0.0 | 2.0 | 0.00 | 0.57 | 0.00 | 96 | 1015.1 |
| 20260901085034 | 72 | 360 | 0.0 | 2.0 | 0.00 | 0.57 | 0.00 | 96 | 1015.1 |
| 20260901084555 | 72 | 360 | 0.0 | 2.0 | 0.00 | 0.57 | 0.00 | 96 | 1015.1 |
| 20260901084034 | 72 | 0 | 0.0 | 2.0 | 0.00 | 0.57 | 0.00 | 95 | 1015.1 |
| 20260901083537 | 72 | 360 | 1.0 | 1.0 | 0.00 | 0.57 | 0.00 | 95 | 1015.1 |
| 20260901083104 | 72 | 360 | 0.0 | 1.0 | 0.00 | 0.57 | 0.00 | 95 | 1015.0 |
| 20260901082534 | 72 | 0 | 0.0 | 0.0 | 0.00 | 0.57 | 0.00 | 96 | 1015.1 |
| 20260901082037 | 72 | 0 | 0.0 | 0.0 | 0.00 | 0.57 | 0.00 | 95 | 1015.1 |
| 20260901081600 | 72 | 0 | 0.0 | 2.0 | 0.00 | 0.57 | 0.00 | 96 | 1015.1 |
| 20260901081035 | 72 | 0 | 0.0 | 2.0 | 0.00 | 0.57 | 0.00 | 95 | 1015.1 |
| 20260901080532 | 73 | 0 | 0.0 | 2.0 | 0.00 | 0.57 | 0.00 | 96 | 1015.2 |
| 20260901075538 | 73 | 360 | 0.0 | 1.0 | 0.00 | 0.57 | 0.00 | 96 | 1015.3 |
| 20260901075036 | 72 | 360 | 1.0 | 1.0 | 0.00 | 0.57 | 0.00 | 96 | 1015.2 |
| 20260901074554 | 72 | 360 | 1.0 | 1.0 | 0.00 | 0.57 | 0.00 | 95 | 1015.3 |
| 20260901074033 | 72 | 360 | 1.0 | 2.0 | 0.00 | 0.57 | 0.00 | 95 | 1015.3 |
| 20260901073534 | 72 | 360 | 0.0 | 2.0 | 0.00 | 0.57 | 0.00 | 95 | 1015.4 |
| 20260901073101 | 72 | 0 | 0.0 | 2.0 | 0.00 | 0.57 | 0.00 | 95 | 1015.4 |
| 20260901072536 | 72 | 360 | 0.0 | 2.0 | 0.00 | 0.57 | 0.00 | 95 | 1015.4 |
| 20260901072035 | 73 | 0 | 0.0 | 1.0 | 0.00 | 0.57 | 0.00 | 95 | 1015.5 |
| 20260901071556 | 73 | 360 | 0.0 | 1.0 | 0.00 | 0.57 | 0.00 | 95 | 1015.6 |
| 20260901071036 | 73 | 360 | 1.0 | 2.0 | 0.00 | 0.57 | 0.00 | 95 | 1015.6 |
| 20260901070537 | 73 | 360 | 1.0 | 3.0 | 0.00 | 0.57 | 0.00 | 96 | 1015.6 |
| 20260901070107 | 73 | 360 | 1.0 | 5.0 | 0.00 | 0.57 | 0.00 | 95 | 1015.6 |
| 20260901065536 | 73 | 360 | 3.0 | 5.0 | 0.00 | 0.57 | 0.00 | 96 | 1015.6 |
| 20260901065037 | 73 | 12 | 1.0 | 3.0 | 0.00 | 0.57 | 0.00 | 96 | 1015.7 |
| 20260901064601 | 73 | 39 | 1.0 | 2.0 | 0.00 | 0.57 | 0.00 | 96 | 1015.8 |
| 20260901064035 | 73 | 39 | 1.0 | 2.0 | 0.00 | 0.57 | 0.00 | 96 | 1015.8 |
| 20260901063534 | 73 | 15 | 1.0 | 2.0 | 0.00 | 0.57 | 0.00 | 96 | 1015.8 |
| 20260901063059 | 73 | 352 | 1.0 | 3.0 | 0.00 | 0.57 | 0.00 | 96 | 1015.8 |
| 20260901062549 | 73 | 352 | 1.0 | 3.0 | 0.00 | 0.57 | 0.00 | 96 | 1015.8 |
| 20260901062034 | 73 | 360 | 1.0 | 2.0 | 0.00 | 0.57 | 0.00 | 95 | 1015.8 |
| 20260901061552 | 73 | 5 | 1.0 | 2.0 | 0.00 | 0.57 | 0.00 | 96 | 1016.0 |
| 20260901061034 | 73 | 5 | 0.0 | 2.0 | 0.00 | 0.57 | 0.00 | 96 | 1016.0 |
| 20260901060535 | 73 | 5 | 1.0 | 3.0 | 0.00 | 0.57 | 0.00 | 95 | 1016.1 |
| 20260901060110 | 72 | 5 | 2.0 | 3.0 | 0.00 | 0.57 | 0.00 | 95 | 1016.0 |
| 20260901055534 | 72 | 5 | 1.0 | 1.0 | 0.00 | 0.57 | 0.00 | 95 | 1016.2 |
| 20260901055033 | 72 | 5 | 1.0 | 1.0 | 0.00 | 0.57 | 0.00 | 95 | 1016.1 |
| 20260901054559 | 72 | 5 | 1.0 | 2.0 | 0.00 | 0.57 | 0.00 | 95 | 1016.1 |
| 20260901054036 | 72 | 5 | 1.0 | 2.0 | 0.00 | 0.57 | 0.00 | 95 | 1016.1 |
| 20260901053538 | 72 | 5 | 0.0 | 2.0 | 0.00 | 0.57 | 0.00 | 95 | 1016.2 |
| 20260901053119 | 72 | 0 | 0.0 | 0.0 | 0.00 | 0.57 | 0.00 | 95 | 1016.4 |
| 20260901052534 | 73 | 0 | 0.0 | 1.0 | 0.00 | 0.57 | 0.00 | 95 | 1016.5 |
| 20260901052036 | 72 | 0 | 0.0 | 2.0 | 0.00 | 0.57 | 0.00 | 95 | 1016.6 |
| 20260901051611 | 73 | 5 | 0.0 | 2.0 | 0.00 | 0.57 | 0.00 | 95 | 1016.6 |
| 20260901051036 | 73 | 5 | 0.0 | 2.0 | 0.00 | 0.57 | 0.00 | 95 | 1016.5 |
| 20260901050535 | 73 | 5 | 1.0 | 2.0 | 0.00 | 0.57 | 0.00 | 95 | 1016.6 |
| 20260901045535 | 73 | 5 | 1.0 | 2.0 | 0.00 | 0.57 | 0.00 | 95 | 1016.5 |
| 20260901045033 | 73 | 5 | 0.0 | 2.0 | 0.00 | 0.57 | 0.00 | 95 | 1016.5 |
| 20260901044606 | 73 | 5 | 1.0 | 2.0 | 0.00 | 0.57 | 0.00 | 95 | 1016.6 |
| 20260901044034 | 73 | 0 | 1.0 | 2.0 | 0.00 | 0.57 | 0.00 | 95 | 1016.6 |
| 20260901043536 | 73 | 0 | 0.0 | 2.0 | 0.00 | 0.57 | 0.00 | 95 | 1016.7 |
| 20260901043056 | 73 | 0 | 1.0 | 2.0 | 0.00 | 0.57 | 0.00 | 95 | 1016.7 |
| 20260901042534 | 73 | 26 | 1.0 | 2.0 | 0.00 | 0.57 | 0.00 | 95 | 1016.8 |
| 20260901042034 | 73 | 26 | 0.0 | 0.0 | 0.00 | 0.57 | 0.00 | 95 | 1016.8 |
| 20260901041559 | 73 | 0 | 0.0 | 0.0 | 0.00 | 0.57 | 0.00 | 95 | 1016.8 |
| 20260901041033 | 73 | 0 | 0.0 | 0.0 | 0.00 | 0.57 | 0.00 | 95 | 1016.9 |
| 20260901040535 | 73 | 0 | 0.0 | 2.0 | 0.00 | 0.57 | 0.00 | 95 | 1016.9 |
| 20260901040114 | 73 | 0 | 0.0 | 2.0 | 0.00 | 0.57 | 0.00 | 95 | 1016.9 |
| 20260901035535 | 73 | 26 | 0.0 | 1.0 | 0.00 | 0.57 | 0.57 | 95 | 1016.9 |
| 20260901035034 | 73 | 26 | 0.0 | 1.0 | 0.00 | 0.57 | 0.57 | 95 | 1016.9 |
| 20260901034609 | 72 | 0 | 0.0 | 2.0 | 0.00 | 0.57 | 0.57 | 95 | 1017.1 |
| 20260901034035 | 72 | 0 | 0.0 | 2.0 | 0.00 | 0.57 | 0.57 | 95 | 1017.1 |
| 20260901033534 | 72 | 0 | 0.0 | 2.0 | 0.00 | 0.57 | 0.57 | 95 | 1017.0 |
| 20260901033100 | 73 | 26 | 0.0 | 2.0 | 0.00 | 0.57 | 0.57 | 95 | 1017.0 |
| 20260901032538 | 73 | 0 | 0.0 | 2.0 | 0.00 | 0.57 | 0.57 | 95 | 1017.0 |
| 20260901032037 | 72 | 0 | 0.0 | 2.0 | 0.00 | 0.57 | 0.57 | 95 | 1017.0 |
| 20260901031601 | 72 | 26 | 1.0 | 2.0 | 0.00 | 0.57 | 0.57 | 95 | 1016.9 |
| 20260901031035 | 73 | 26 | 1.0 | 2.0 | 0.00 | 0.57 | 0.57 | 95 | 1016.9 |
| 20260901030534 | 73 | 26 | 2.0 | 2.0 | 0.00 | 0.57 | 0.57 | 95 | 1017.0 |
| 20260901030057 | 73 | 26 | 1.0 | 2.0 | 0.00 | 0.57 | 0.57 | 95 | 1017.0 |
| 20260901025533 | 73 | 26 | 1.0 | 2.0 | 0.00 | 0.57 | 0.57 | 94 | 1017.1 |
| 20260901025037 | 73 | 26 | 0.0 | 2.0 | 0.00 | 0.57 | 0.57 | 95 | 1017.0 |
| 20260901024559 | 73 | 0 | 0.0 | 1.0 | 0.00 | 0.57 | 0.57 | 95 | 1016.9 |
| 20260901024035 | 73 | 26 | 1.0 | 2.0 | 0.00 | 0.57 | 0.57 | 94 | 1016.8 |
| 20260901023534 | 73 | 26 | 1.0 | 2.0 | 0.00 | 0.57 | 0.57 | 95 | 1016.9 |
| 20260901023105 | 73 | 26 | 0.0 | 2.0 | 0.00 | 0.57 | 0.57 | 95 | 1016.9 |
| 20260901022534 | 73 | 0 | 0.0 | 0.0 | 0.00 | 0.57 | 0.57 | 94 | 1016.8 |
| 20260901022035 | 73 | 0 | 0.0 | 0.0 | 0.00 | 0.57 | 0.57 | 94 | 1016.9 |
| 20260901021557 | 73 | 0 | 0.0 | 0.0 | 0.00 | 0.57 | 0.57 | 94 | 1016.8 |
| 20260901021035 | 73 | 0 | 0.0 | 2.0 | 0.00 | 0.57 | 0.57 | 94 | 1016.7 |
| 20260901020533 | 73 | 0 | 0.0 | 2.0 | 0.00 | 0.57 | 0.57 | 94 | 1016.7 |
| 20260901015534 | 73 | 26 | 1.0 | 1.0 | 0.00 | 0.57 | 0.57 | 94 | 1016.6 |
| 20260901015034 | 74 | 26 | 1.0 | 1.0 | 0.00 | 0.57 | 0.57 | 94 | 1016.5 |
| 20260901014601 | 74 | 26 | 0.0 | 2.0 | 0.00 | 0.57 | 0.57 | 94 | 1016.4 |
| 20260901014034 | 74 | 0 | 0.0 | 2.0 | 0.00 | 0.57 | 0.57 | 94 | 1016.4 |
| 20260901013536 | 74 | 0 | 0.0 | 2.0 | 0.00 | 0.57 | 0.57 | 94 | 1016.4 |
| 20260901013104 | 74 | 26 | 0.0 | 1.0 | 0.00 | 0.57 | 0.57 | 94 | 1016.3 |
| 20260901012538 | 74 | 26 | 1.0 | 1.0 | 0.00 | 0.57 | 0.57 | 94 | 1016.3 |
| 20260901012032 | 74 | 26 | 0.0 | 1.0 | 0.00 | 0.57 | 0.57 | 94 | 1016.3 |
| 20260901011607 | 74 | 26 | 1.0 | 2.0 | 0.00 | 0.57 | 0.57 | 94 | 1016.3 |
| 20260901011033 | 74 | 26 | 1.0 | 2.0 | 0.00 | 0.57 | 0.57 | 94 | 1016.3 |
| 20260901010535 | 74 | 26 | 0.0 | 2.0 | 0.00 | 0.57 | 0.57 | 94 | 1016.3 |
| 20260901010107 | 75 | 26 | 0.0 | 2.0 | 0.00 | 0.57 | 0.57 | 93 | 1016.3 |
| 20260901005535 | 75 | 26 | 0.0 | 0.0 | 0.00 | 0.57 | 0.57 | 93 | 1016.3 |
| 20260901005035 | 75 | 0 | 0.0 | 0.0 | 0.00 | 0.57 | 0.57 | 93 | 1016.3 |
| 20260901004608 | 75 | 0 | 0.0 | 0.0 | 0.00 | 0.57 | 0.57 | 93 | 1016.2 |
| 20260901004034 | 75 | 0 | 0.0 | 2.0 | 0.00 | 0.57 | 0.57 | 93 | 1016.3 |
| 20260901003534 | 75 | 0 | 0.0 | 2.0 | 0.00 | 0.57 | 0.57 | 93 | 1016.2 |
| 20260901003058 | 75 | 26 | 0.0 | 2.0 | 0.00 | 0.57 | 0.57 | 92 | 1016.2 |
| 20260901002537 | 75 | 26 | 0.0 | 1.0 | 0.00 | 0.57 | 0.57 | 92 | 1016.2 |
| 20260901002038 | 76 | 26 | 1.0 | 2.0 | 0.00 | 0.57 | 0.57 | 92 | 1016.1 |
| 20260901001555 | 76 | 26 | 1.0 | 2.0 | 0.00 | 0.57 | 0.57 | 92 | 1016.2 |
| 20260901001034 | 76 | 0 | 0.0 | 2.0 | 0.00 | 0.57 | 0.57 | 92 | 1016.2 |
| 20260901000533 | 76 | 26 | 0.0 | 2.0 | 0.00 | 0.57 | 0.57 | 92 | 1016.0 |
| 20260831235534 | 77 | 26 | 0.0 | 2.0 | 0.00 | 0.57 | 0.57 | 91 | 1016.0 |
| 20260831235034 | 77 | 26 | 1.0 | 2.0 | 0.00 | 0.57 | 0.57 | 91 | 1016.0 |
| 20260831234558 | 77 | 26 | 1.0 | 2.0 | 0.00 | 0.57 | 0.57 | 91 | 1016.0 |
| 20260831234035 | 77 | 26 | 1.0 | 2.0 | 0.00 | 0.57 | 0.57 | 90 | 1016.0 |
| 20260831233534 | 77 | 26 | 1.0 | 2.0 | 0.00 | 0.57 | 0.57 | 90 | 1016.1 |
| 20260831233100 | 78 | 26 | 1.0 | 2.0 | 0.00 | 0.57 | 0.57 | 90 | 1016.1 |
| 20260831232537 | 78 | 29 | 1.0 | 2.0 | 0.00 | 0.57 | 0.57 | 89 | 1016.0 |
| 20260831232034 | 78 | 29 | 1.0 | 2.0 | 0.00 | 0.57 | 0.57 | 89 | 1016.1 |
| 20260831231551 | 78 | 29 | 1.0 | 3.0 | 0.00 | 0.57 | 0.57 | 88 | 1016.0 |
| 20260831231034 | 78 | 30 | 1.0 | 3.0 | 0.00 | 0.57 | 0.57 | 88 | 1015.9 |
| 20260831230533 | 78 | 352 | 1.0 | 3.0 | 0.00 | 0.57 | 0.57 | 88 | 1015.9 |
| 20260831230113 | 79 | 32 | 1.0 | 3.0 | 0.00 | 0.57 | 0.57 | 88 | 1016.0 |
| 20260831225535 | 79 | 13 | 2.0 | 3.0 | 0.00 | 0.57 | 0.57 | 88 | 1016.0 |
| 20260831225037 | 79 | 43 | 1.0 | 4.0 | 0.00 | 0.57 | 0.57 | 87 | 1016.0 |
| 20260831224601 | 79 | 11 | 2.0 | 4.0 | 0.00 | 0.57 | 0.57 | 87 | 1016.0 |
| 20260831224035 | 79 | 28 | 2.0 | 5.0 | 0.00 | 0.57 | 0.57 | 87 | 1016.0 |
| 20260831223534 | 79 | 9 | 2.0 | 6.0 | 0.00 | 0.57 | 0.57 | 87 | 1016.0 |
| 20260831223100 | 79 | 35 | 3.0 | 6.0 | 0.00 | 0.57 | 0.57 | 86 | 1015.9 |
| 20260831222534 | 79 | 20 | 3.0 | 6.0 | 0.00 | 0.57 | 0.57 | 86 | 1015.9 |
| 20260831222034 | 79 | 44 | 3.0 | 6.0 | 0.00 | 0.57 | 0.57 | 86 | 1015.9 |
| 20260831221604 | 79 | 55 | 3.0 | 6.0 | 0.00 | 0.57 | 0.57 | 87 | 1015.9 |
| 20260831221035 | 79 | 15 | 2.0 | 8.0 | 0.00 | 0.57 | 0.57 | 88 | 1015.9 |
| 20260831220533 | 79 | 16 | 4.0 | 8.0 | 0.00 | 0.57 | 0.57 | 88 | 1015.9 |
| 20260831220119 | 78 | 46 | 3.0 | 5.0 | 0.00 | 0.57 | 0.57 | 88 | 1015.9 |
| 20260831215531 | 78 | 10 | 3.0 | 6.0 | 0.00 | 0.57 | 0.57 | 88 | 1016.0 |
| 20260831215035 | 78 | 38 | 3.0 | 8.0 | 0.00 | 0.57 | 0.57 | 88 | 1016.0 |
| 20260831214603 | 78 | 5 | 3.0 | 8.0 | 0.00 | 0.57 | 0.57 | 89 | 1016.1 |
| 20260831214034 | 78 | 39 | 4.0 | 8.0 | 0.00 | 0.57 | 0.57 | 88 | 1016.1 |
| 20260831213535 | 78 | 39 | 3.0 | 8.0 | 0.00 | 0.57 | 0.57 | 89 | 1016.0 |
| 20260831213116 | 78 | 15 | 3.0 | 9.0 | 0.00 | 0.57 | 0.57 | 89 | 1016.0 |
| 20260831212535 | 78 | 45 | 4.0 | 9.0 | 0.00 | 0.57 | 0.57 | 88 | 1016.0 |
| 20260831212037 | 78 | 14 | 3.0 | 9.0 | 0.00 | 0.57 | 0.57 | 88 | 1016.0 |
| 20260831211611 | 78 | 9 | 3.0 | 9.0 | 0.00 | 0.57 | 0.57 | 87 | 1016.1 |
| 20260831211034 | 78 | 13 | 4.0 | 9.0 | 0.00 | 0.57 | 0.57 | 88 | 1016.2 |
| 20260831210536 | 79 | 20 | 4.0 | 7.0 | 0.00 | 0.57 | 0.57 | 88 | 1016.3 |
| 20260831210056 | 79 | 360 | 3.0 | 6.0 | 0.00 | 0.57 | 0.57 | 89 | 1016.1 |
| 20260831205534 | 79 | 342 | 3.0 | 5.0 | 0.00 | 0.57 | 0.57 | 88 | 1016.2 |
| 20260831205034 | 79 | 352 | 3.0 | 5.0 | 0.00 | 0.57 | 0.57 | 89 | 1016.2 |
| 20260831204601 | 79 | 29 | 3.0 | 5.0 | 0.00 | 0.57 | 0.57 | 88 | 1016.2 |
| 20260831204035 | 79 | 352 | 3.0 | 5.0 | 0.00 | 0.57 | 0.57 | 88 | 1016.2 |
| 20260831203535 | 79 | 15 | 2.0 | 4.0 | 0.00 | 0.57 | 0.57 | 89 | 1016.2 |
| 20260831203105 | 79 | 0 | 0.0 | 5.0 | 0.00 | 0.57 | 0.57 | 90 | 1016.2 |
| 20260831202534 | 79 | 360 | 1.0 | 5.0 | 0.00 | 0.57 | 0.57 | 90 | 1016.1 |
| 20260831202035 | 78 | 5 | 3.0 | 5.0 | 0.00 | 0.57 | 0.57 | 89 | 1016.2 |
| 20260831201557 | 78 | 14 | 2.0 | 5.0 | 0.00 | 0.57 | 0.57 | 90 | 1016.3 |
| 20260831201039 | 78 | 38 | 3.0 | 6.0 | 0.00 | 0.57 | 0.57 | 89 | 1016.4 |
| 20260831200535 | 78 | 40 | 4.0 | 7.0 | 0.00 | 0.57 | 0.57 | 89 | 1016.3 |
| 20260831195534 | 78 | 57 | 4.0 | 7.0 | 0.00 | 0.57 | 0.57 | 89 | 1016.3 |
| 20260831195034 | 78 | 45 | 3.0 | 8.0 | 0.00 | 0.57 | 0.57 | 89 | 1016.4 |
| 20260831194600 | 78 | 51 | 4.0 | 8.0 | 0.00 | 0.57 | 0.57 | 89 | 1016.4 |
| 20260831194035 | 78 | 55 | 4.0 | 8.0 | 0.01 | 0.57 | 0.57 | 89 | 1016.4 |
| 20260831193536 | 78 | 49 | 4.0 | 6.0 | 0.01 | 0.57 | 0.57 | 89 | 1016.6 |
| 20260831193058 | 77 | 41 | 3.0 | 6.0 | 0.01 | 0.57 | 0.57 | 90 | 1016.7 |
| 20260831192534 | 77 | 42 | 4.0 | 6.0 | 0.01 | 0.57 | 0.57 | 89 | 1016.8 |
| 20260831192037 | 77 | 41 | 2.0 | 3.0 | 0.01 | 0.57 | 0.57 | 91 | 1016.8 |
| 20260831191602 | 76 | 71 | 1.0 | 3.0 | 0.01 | 0.57 | 0.57 | 91 | 1016.9 |
| 20260831191035 | 76 | 70 | 1.0 | 4.0 | 0.01 | 0.57 | 0.57 | 91 | 1016.9 |
| 20260831190535 | 76 | 65 | 2.0 | 4.0 | 0.01 | 0.57 | 0.57 | 91 | 1016.8 |
| 20260831190110 | 76 | 56 | 2.0 | 4.0 | 0.01 | 0.57 | 0.57 | 90 | 1016.7 |
| 20260831185534 | 76 | 45 | 2.0 | 4.0 | 0.01 | 0.57 | 0.57 | 91 | 1016.6 |
| 20260831185035 | 75 | 55 | 2.0 | 2.0 | 0.01 | 0.57 | 0.57 | 92 | 1016.6 |
| 20260831184605 | 75 | 17 | 1.0 | 2.0 | 0.01 | 0.57 | 0.57 | 92 | 1016.6 |
| 20260831184034 | 75 | 321 | 0.0 | 3.0 | 0.01 | 0.56 | 0.56 | 92 | 1016.6 |
| 20260831183534 | 75 | 321 | 1.0 | 3.0 | 0.01 | 0.56 | 0.56 | 92 | 1016.7 |
| 20260831183105 | 75 | 360 | 1.0 | 3.0 | 0.02 | 0.56 | 0.56 | 92 | 1016.7 |
| 20260831182534 | 75 | 344 | 1.0 | 5.0 | 0.03 | 0.56 | 0.56 | 93 | 1016.9 |
| 20260831182035 | 74 | 360 | 2.0 | 5.0 | 0.04 | 0.56 | 0.56 | 92 | 1017.1 |
| 20260831181554 | 74 | 341 | 2.0 | 5.0 | 0.04 | 0.56 | 0.56 | 93 | 1017.2 |
| 20260831181036 | 74 | 317 | 3.0 | 6.0 | 0.05 | 0.56 | 0.56 | 92 | 1017.3 |
| 20260831180535 | 74 | 336 | 3.0 | 6.0 | 0.05 | 0.56 | 0.56 | 92 | 1017.2 |
| 20260831180105 | 74 | 335 | 4.0 | 6.0 | 0.05 | 0.56 | 0.56 | 92 | 1017.3 |
| 20260831175534 | 75 | 335 | 4.0 | 6.0 | 0.05 | 0.56 | 0.56 | 91 | 1017.4 |
| 20260831175033 | 75 | 345 | 3.0 | 14.0 | 0.06 | 0.56 | 0.56 | 91 | 1017.3 |
| 20260831174558 | 75 | 15 | 3.0 | 14.0 | 0.06 | 0.56 | 0.56 | 90 | 1017.3 |
| 20260831174035 | 75 | 322 | 6.0 | 14.0 | 0.05 | 0.55 | 0.55 | 91 | 1017.4 |
| 20260831173534 | 76 | 339 | 4.0 | 8.0 | 0.05 | 0.55 | 0.55 | 93 | 1017.2 |
| 20260831173052 | 76 | 244 | 1.0 | 4.0 | 0.05 | 0.54 | 0.54 | 93 | 1017.3 |
| 20260831172533 | 76 | 230 | 1.0 | 4.0 | 0.05 | 0.52 | 0.52 | 93 | 1017.4 |
| 20260831172034 | 76 | 224 | 1.0 | 3.0 | 0.05 | 0.52 | 0.52 | 93 | 1017.4 |
| 20260831171558 | 76 | 248 | 1.0 | 2.0 | 0.05 | 0.52 | 0.52 | 93 | 1017.4 |
| 20260831171036 | 76 | 236 | 0.0 | 5.0 | 0.04 | 0.51 | 0.51 | 94 | 1017.3 |
| 20260831170536 | 76 | 230 | 1.0 | 7.0 | 0.05 | 0.51 | 0.51 | 93 | 1017.3 |
| 20260831170104 | 76 | 231 | 1.0 | 7.0 | 0.11 | 0.51 | 0.51 | 93 | 1017.3 |
| 20260831165537 | 76 | 234 | 4.0 | 7.0 | 0.25 | 0.52 | 0.51 | 93 | 1017.3 |
| 20260831165034 | 76 | 192 | 2.0 | 5.0 | 0.36 | 0.51 | 0.50 | 93 | 1017.3 |
| 20260831164606 | 76 | 278 | 1.0 | 9.0 | 0.44 | 0.51 | 0.50 | 93 | 1017.3 |
| 20260831164037 | 76 | 277 | 2.0 | 9.0 | 0.48 | 0.51 | 0.50 | 92 | 1017.5 |
| 20260831163535 | 76 | 283 | 4.0 | 9.0 | 0.50 | 0.51 | 0.50 | 91 | 1017.7 |
| 20260831163058 | 77 | 272 | 3.0 | 7.0 | 0.49 | 0.50 | 0.49 | 91 | 1017.9 |
| 20260831162535 | 77 | 276 | 0.0 | 3.0 | 0.48 | 0.49 | 0.48 | 91 | 1017.8 |
| 20260831162035 | 77 | 278 | 1.0 | 5.0 | 0.47 | 0.48 | 0.47 | 90 | 1017.7 |
| 20260831161556 | 77 | 288 | 2.0 | 5.0 | 0.47 | 0.48 | 0.47 | 90 | 1017.7 |
| 20260831161034 | 77 | 328 | 3.0 | 5.0 | 0.47 | 0.48 | 0.47 | 91 | 1017.8 |
| 20260831160537 | 78 | 350 | 2.0 | 8.0 | 0.46 | 0.47 | 0.46 | 88 | 1017.7 |
| 20260831160104 | 79 | 42 | 5.0 | 8.0 | 0.38 | 0.39 | 0.38 | 87 | 1017.8 |
| 20260831155535 | 79 | 19 | 3.0 | 6.0 | 0.25 | 0.26 | 0.25 | 86 | 1017.7 |
| 20260831155035 | 80 | 336 | 4.0 | 6.0 | 0.14 | 0.15 | 0.14 | 85 | 1017.7 |
| 20260831154614 | 81 | 360 | 3.0 | 4.0 | 0.05 | 0.06 | 0.05 | 86 | 1017.6 |
| 20260831154035 | 82 | 352 | 2.0 | 3.0 | 0.02 | 0.03 | 0.02 | 85 | 1017.6 |
| 20260831153532 | 82 | 352 | 2.0 | 4.0 | 0.00 | 0.01 | 0.00 | 81 | 1017.6 |
| 20260831153100 | 83 | 25 | 2.0 | 4.0 | 0.00 | 0.01 | 0.00 | 80 | 1017.6 |
| 20260831152534 | 84 | 54 | 1.0 | 4.0 | 0.00 | 0.01 | 0.00 | 78 | 1017.7 |